CW0041 Brunswick GA US current weather conditions

sailwx.info

Wind from 263 at 2 knots gusting 10

Air temperature 11.7° C
Dewpoint 11.4° C

Last reported at 2019-Dec-14 14:05 UTC.
Time now 2019-Dec-14 15:14 UTC

Location: N 31°17' W 081°32'.
View on Google Maps.

See reports from other nearby stations

  
Tides and Currents Weather Stations Pressure Air Temp Water Temp Dewpoint Dewpoint Depression Visibility Wind Speed Wind Dir Waves Ship Positions
date/time (UTC)wind fromknots sea level pressurealtimeterstation pressurevisibilityair tempwater tempwave heightnotes
2019-Dec-14 14:05 263 2 gusting 10 11.7
2019-Dec-14 14:00 306 2 gusting 10 11.7
2019-Dec-14 13:55 247 2 gusting 10 11.7
2019-Dec-14 13:50 241 2 gusting 10 11.7
2019-Dec-14 13:45 279 3 gusting 12 11.7
2019-Dec-14 13:40 239 3 gusting 12 11.7
2019-Dec-14 13:35 252 2 gusting 9 11.7
2019-Dec-14 13:30 225 2 gusting 9 11.7
2019-Dec-14 13:25 269 2 gusting 8 12.2
2019-Dec-14 13:20 283 2 gusting 7 12.2
2019-Dec-14 13:15 264 2 gusting 9 12.2
2019-Dec-14 13:10 275 3 gusting 9 12.2
2019-Dec-14 13:05 288 3 gusting 11 12.2
2019-Dec-14 13:00 290 2 gusting 11 12.2
2019-Dec-14 12:55 309 1 gusting 8 12.2
2019-Dec-14 12:50 253 1 gusting 8 12.2
2019-Dec-14 12:45 311 1 gusting 6 12.2
2019-Dec-14 12:40 247 2 gusting 6 12.2
2019-Dec-14 12:35 344 1 gusting 6 12.2
2019-Dec-14 12:29 311 2 gusting 7 12.2
2019-Dec-14 12:24 325 2 gusting 8 12.2
2019-Dec-14 12:19 287 1 gusting 8 12.2
2019-Dec-14 12:14 317 0 gusting 2 12.2
2019-Dec-14 12:09 317 0 gusting 2 12.2
2019-Dec-14 12:04 229 0 gusting 1 12.2
2019-Dec-14 11:59 183 12.2
2019-Dec-14 11:54 183 12.2
2019-Dec-14 11:49 183 12.2
2019-Dec-14 11:44 183 12.2
2019-Dec-14 11:39 183 12.2
2019-Dec-14 11:34 183 12.2
2019-Dec-14 11:29 183 12.2
2019-Dec-14 11:24 183 12.2
2019-Dec-14 11:19 183 0 gusting 2 12.2
2019-Dec-14 10:59 256 0 gusting 3 12.2
2019-Dec-14 10:54 185 0 gusting 3 12.2
2019-Dec-14 10:49 205 0 gusting 1 12.2
2019-Dec-14 10:44 205 12.2
2019-Dec-14 10:39 306 12.2
2019-Dec-14 10:34 306 12.2
2019-Dec-14 10:29 306 12.2
2019-Dec-14 10:24 306 12.2
2019-Dec-14 10:19 306 12.2
2019-Dec-14 10:14 306 12.2
2019-Dec-14 10:09 304 12.2
2019-Dec-14 10:04 306 0 gusting 1 12.2
2019-Dec-14 09:59 307 12.2
2019-Dec-14 09:54 306 0 gusting 2 11.7
2019-Dec-14 09:49 306 0 gusting 3 11.7
2019-Dec-14 09:44 329 1 gusting 5 11.7
2019-Dec-14 09:39 321 1 gusting 5 11.7
2019-Dec-14 09:34 325 2 gusting 4 11.7
2019-Dec-14 09:29 317 3 gusting 8 11.7
2019-Dec-14 09:24 310 2 gusting 8 12.2
2019-Dec-14 09:19 306 2 gusting 6 12.8
2019-Dec-14 09:09 312 3 gusting 6 13.3
2019-Dec-14 09:04 268 2 gusting 8 13.3
2019-Dec-14 08:54 338 2 gusting 8 14.4
2019-Dec-14 08:49 323 2 gusting 8 15.0
2019-Dec-14 08:44 320 2 gusting 8 15.6
2019-Dec-14 08:39 298 2 gusting 8 15.6
2019-Dec-14 08:34 290 1 gusting 6 16.7
2019-Dec-14 08:29 167 1 gusting 6 16.7
2019-Dec-14 08:24 194 2 gusting 6 16.7
2019-Dec-14 08:19 183 2 gusting 6 16.7
2019-Dec-14 08:14 163 2 gusting 6 16.1
2019-Dec-14 08:09 181 1 gusting 4 16.1
2019-Dec-14 08:04 172 1 gusting 4 16.1
2019-Dec-14 07:58 193 1 gusting 4 15.6
2019-Dec-14 07:53 203 1 gusting 3 15.6
2019-Dec-14 07:48 167 1 gusting 3 15.6
2019-Dec-14 07:43 202 1 gusting 3 15.6
2019-Dec-14 07:38 199 1 gusting 3 15.0
2019-Dec-14 07:33 209 0 gusting 3 15.0
2019-Dec-14 07:28 138 0 gusting 2 14.4
2019-Dec-14 07:23 170 0 gusting 2 14.4
2019-Dec-14 07:18 172 0 gusting 2 14.4
2019-Dec-14 07:13 182 0 gusting 1 14.4
2019-Dec-14 07:08 182 14.4
2019-Dec-14 07:03 182 14.4
2019-Dec-14 06:58 182 14.4
2019-Dec-14 06:53 182 14.4
2019-Dec-14 06:48 182 14.4
2019-Dec-14 06:43 182 14.4
2019-Dec-14 06:38 182 14.4
2019-Dec-14 06:33 182 14.4
2019-Dec-14 06:28 182 0 gusting 1 14.4
2019-Dec-14 06:23 182 14.4
2019-Dec-14 06:18 182 14.4
2019-Dec-14 06:13 199 0 gusting 2 14.4
2019-Dec-14 06:08 199 0 gusting 2 14.4
2019-Dec-14 06:03 199 0 gusting 1 13.9
2019-Dec-14 05:58 199 0 gusting 1 13.9
2019-Dec-14 05:53 199 0 gusting 2 13.9
2019-Dec-14 05:48 204 0 gusting 2 13.9
2019-Dec-14 05:43 190 0 gusting 2 13.9
2019-Dec-14 05:38 184 13.9
2019-Dec-14 05:33 184 0 gusting 1 13.9
2019-Dec-14 05:28 184 0 gusting 2 13.9
2019-Dec-14 05:23 190 0 gusting 2 13.3
2019-Dec-14 05:18 168 0 gusting 1 13.3
2019-Dec-14 05:13 166 0 gusting 1 13.3
2019-Dec-14 05:08 165 0 gusting 5 13.3
2019-Dec-14 05:03 152 1 gusting 5 13.3
2019-Dec-14 04:58 158 0 gusting 3 13.3
2019-Dec-14 04:53 164 0 gusting 3 13.3
2019-Dec-14 04:47 201 0 gusting 3 12.8
2019-Dec-14 04:42 157 0 gusting 2 12.8
2019-Dec-14 04:37 190 0 gusting 3 12.8
2019-Dec-14 04:32 168 0 gusting 3 12.8
2019-Dec-14 04:27 182 1 gusting 3 12.8
2019-Dec-14 04:22 138 1 gusting 3 12.8
2019-Dec-14 04:17 188 1 gusting 4 12.2
2019-Dec-14 04:12 196 1 gusting 4 12.2
2019-Dec-14 04:07 204 0 gusting 3 12.2
2019-Dec-14 04:03 209 0 gusting 2 12.2
2019-Dec-14 03:57 192 0 gusting 2 12.2
2019-Dec-14 03:52 211 12.2
2019-Dec-14 03:47 211 12.2
2019-Dec-14 03:42 211 0 gusting 1 12.2
2019-Dec-14 03:37 211 0 gusting 3 12.2
2019-Dec-14 03:32 202 12.2
2019-Dec-14 03:27 081 12.2
2019-Dec-14 03:22 081 0 gusting 2 12.2
2019-Dec-14 03:17 081 0 gusting 2 12.2
2019-Dec-14 03:12 271 12.2
2019-Dec-14 03:07 271 12.2
2019-Dec-14 03:02 271 12.2
2019-Dec-14 02:57 271 12.2
2019-Dec-14 02:52 333 0 gusting 2 12.2
2019-Dec-14 02:47 333 0 gusting 2 12.2
2019-Dec-14 02:42 331 12.2
2019-Dec-14 02:37 331 12.2
2019-Dec-14 02:32 331 0 gusting 1 12.2
2019-Dec-14 02:27 331 0 gusting 2 12.2
2019-Dec-14 02:22 331 0 gusting 2 12.2
2019-Dec-14 02:17 344 0 gusting 1 12.2
2019-Dec-14 02:12 356 0 gusting 1 12.2
2019-Dec-14 02:07 356 0 gusting 3 12.2
2019-Dec-14 02:02 356 0 gusting 3 12.2
2019-Dec-14 01:57 317 0 gusting 2 12.2
2019-Dec-14 01:52 319 12.2
2019-Dec-14 01:47 319 12.2
2019-Dec-14 01:42 319 0 gusting 2 12.2
2019-Dec-14 01:36 319 0 gusting 2 12.2
2019-Dec-14 01:31 318 12.2
2019-Dec-14 01:26 318 12.2
2019-Dec-14 01:21 318 0 gusting 1 12.2
2019-Dec-14 01:16 318 0 gusting 1 12.2
2019-Dec-14 01:11 318 0 gusting 2 12.2
2019-Dec-14 01:06 318 0 gusting 2 12.2
2019-Dec-14 01:01 318 12.8
2019-Dec-14 00:56 318 12.8
2019-Dec-14 00:51 318 12.8
2019-Dec-14 00:46 318 12.8
2019-Dec-14 00:41 318 0 gusting 1 12.8
2019-Dec-14 00:36 318 12.8
2019-Dec-14 00:31 318 12.8
2019-Dec-14 00:26 318 12.8
2019-Dec-14 00:21 318 0 gusting 1 12.8
2019-Dec-14 00:16 318 0 gusting 1 12.8
2019-Dec-14 00:11 318 0 gusting 1 12.8
2019-Dec-14 00:06 318 0 gusting 3 12.8
2019-Dec-14 00:01 318 0 gusting 3 12.8
2019-Dec-13 23:56 343 0 gusting 2 12.8
2019-Dec-13 23:51 336 0 gusting 3 12.8
2019-Dec-13 23:46 325 0 gusting 3 12.8
2019-Dec-13 23:41 317 1 gusting 2 12.8
2019-Dec-13 23:36 317 0 gusting 2 12.8
2019-Dec-13 23:31 349 12.8
2019-Dec-13 23:26 349 0 gusting 1 13.3
2019-Dec-13 23:21 349 0 gusting 2 13.3
2019-Dec-13 23:16 349 0 gusting 2 13.3
2019-Dec-13 23:11 314 0 gusting 2 13.3
2019-Dec-13 23:06 313 0 gusting 2 13.3
2019-Dec-13 23:00 310 0 gusting 2 13.9
2019-Dec-13 22:55 310 0 gusting 2 13.9
2019-Dec-13 22:50 310 0 gusting 2 13.9
2019-Dec-13 22:45 302 0 gusting 2 13.9
2019-Dec-13 22:40 302 0 gusting 2 13.9
2019-Dec-13 22:35 350 0 gusting 1 13.9
2019-Dec-13 22:30 350 0 gusting 3 13.9
2019-Dec-13 22:25 350 0 gusting 3 13.9
2019-Dec-13 22:20 332 0 gusting 4 13.9
2019-Dec-13 22:15 333 1 gusting 4 13.9
2019-Dec-13 22:10 302 0 gusting 3 14.4
2019-Dec-13 22:05 334 0 gusting 3 14.4
2019-Dec-13 22:00 329 1 gusting 3 14.4
2019-Dec-13 21:55 325 0 gusting 2 14.4
2019-Dec-13 21:50 351 0 gusting 2 14.4
2019-Dec-13 21:45 348 14.4
2019-Dec-13 21:40 348 14.4
2019-Dec-13 21:35 348 0 gusting 1 13.9
2019-Dec-13 21:30 348 0 gusting 1 13.9
2019-Dec-13 21:25 348 0 gusting 1 13.9
2019-Dec-13 21:20 049 0 gusting 1 13.9
2019-Dec-13 21:15 049 13.9
2019-Dec-13 21:10 049 0 gusting 1 13.9
2019-Dec-13 21:05 049 0 gusting 2 13.9
2019-Dec-13 21:00 049 0 gusting 2 13.9
2019-Dec-13 20:55 049 0 gusting 1 13.9
2019-Dec-13 20:50 048 0 gusting 1 13.9
2019-Dec-13 20:45 048 0 gusting 1 13.9
2019-Dec-13 20:40 046 0 gusting 1 13.9
2019-Dec-13 20:35 079 1 gusting 2 13.9
2019-Dec-13 20:30 079 1 gusting 2 13.9
2019-Dec-13 20:25 100 0 gusting 1 13.9
2019-Dec-13 20:20 100 0 gusting 1 13.9
2019-Dec-13 20:14 100 0 gusting 1 13.9
2019-Dec-13 20:09 101 0 gusting 1 13.9
2019-Dec-13 20:04 048 0 gusting 1 13.9
2019-Dec-13 19:59 048 0 gusting 2 13.9
2019-Dec-13 19:54 048 0 gusting 2 13.9
2019-Dec-13 19:49 048 0 gusting 2 13.9
2019-Dec-13 19:44 048 0 gusting 2 13.9
2019-Dec-13 19:39 047 0 gusting 2 13.9
2019-Dec-13 19:34 047 0 gusting 2 13.9
2019-Dec-13 19:29 047 0 gusting 2 13.9
2019-Dec-13 19:24 047 0 gusting 2 13.9
2019-Dec-13 19:19 047 0 gusting 2 13.9
2019-Dec-13 19:14 047 0 gusting 2 13.9
2019-Dec-13 19:09 344 1 gusting 4 13.9
2019-Dec-13 19:04 344 1 gusting 4 13.9
2019-Dec-13 18:59 056 0 gusting 2 13.9
2019-Dec-13 18:54 063 0 gusting 1 13.9
2019-Dec-13 18:49 063 1 gusting 4 13.3
2019-Dec-13 18:44 063 2 gusting 4 13.3
2019-Dec-13 18:39 075 1 gusting 4 13.3
2019-Dec-13 18:34 071 2 gusting 6 13.3
2019-Dec-13 18:29 053 2 gusting 6 13.3
2019-Dec-13 18:24 019 2 gusting 5 13.3
2019-Dec-13 18:19 053 1 gusting 4 13.3
2019-Dec-13 18:14 061 1 gusting 4 13.3
2019-Dec-13 18:09 057 1 gusting 3 13.3
2019-Dec-13 18:03 339 2 gusting 4 13.3
2019-Dec-13 17:58 077 2 gusting 4 13.3
2019-Dec-13 17:53 335 1 gusting 4 13.3
2019-Dec-13 17:48 024 2 gusting 4 13.3
2019-Dec-13 17:43 056 2 gusting 5 13.3
2019-Dec-13 17:38 066 1 gusting 5 13.3
2019-Dec-13 17:33 071 1 gusting 3 13.3
2019-Dec-13 17:28 139 0 gusting 2 13.3
2019-Dec-13 17:23 062 0 gusting 2 13.3
2019-Dec-13 17:18 060 1 gusting 3 13.3
2019-Dec-13 17:13 060 1 gusting 3 13.3
2019-Dec-13 17:08 085 0 gusting 2 13.3
2019-Dec-13 17:03 085 1 gusting 3 13.3
2019-Dec-13 16:58 086 1 gusting 3 13.3
2019-Dec-13 16:53 318 2 gusting 6 12.8
2019-Dec-13 16:48 042 2 gusting 6 12.8
2019-Dec-13 16:43 040 1 gusting 4 12.8
2019-Dec-13 16:38 080 2 gusting 4 12.8
2019-Dec-13 16:33 034 2 gusting 4 12.8
2019-Dec-13 16:28 063 1 gusting 4 12.8
2019-Dec-13 16:23 054 1 gusting 4 12.8
2019-Dec-13 16:18 327 1 gusting 4 12.8
2019-Dec-13 16:13 310 1 gusting 4 12.8
2019-Dec-13 16:08 061 1 gusting 4 12.8
2019-Dec-13 16:03 024 1 gusting 5 12.8
2019-Dec-13 15:57 053 1 gusting 5 12.8
2019-Dec-13 15:52 087 1 gusting 3 12.2
2019-Dec-13 15:47 045 2 gusting 3 12.2
2019-Dec-13 15:42 086 1 gusting 3 12.2
2019-Dec-13 15:37 068 0 gusting 2 12.2
2019-Dec-13 15:33 280 0 gusting 3 12.2
2019-Dec-13 15:27 280 1 gusting 6 12.2
2019-Dec-13 15:22 072 1 gusting 6 12.2
2019-Dec-13 15:17 015 0 gusting 2 12.2
2019-Dec-13 15:12 336 12.2
2019-Dec-13 15:07 336 0 gusting 2 12.2
2019-Dec-13 15:02 063 1 gusting 5 12.2
2019-Dec-13 14:57 062 2 gusting 6 12.2
2019-Dec-13 14:52 049 2 gusting 6 12.2
2019-Dec-13 14:47 061 2 gusting 6 12.2
2019-Dec-13 14:42 018 1 gusting 5 12.2
2019-Dec-13 14:37 012 1 gusting 5 12.2
2019-Dec-13 14:32 323 2 gusting 5 12.2
2019-Dec-13 14:27 040 1 gusting 5 12.2
2019-Dec-13 14:22 024 1 gusting 5 12.2
2019-Dec-13 14:17 304 1 gusting 3 12.2
2019-Dec-13 14:12 331 1 gusting 5 12.2
2019-Dec-13 14:07 327 2 gusting 5 12.2
2019-Dec-13 14:02 324 1 gusting 3 12.2
2019-Dec-13 13:57 296 2 gusting 7 12.2
2019-Dec-13 13:52 084 3 gusting 7 12.2
2019-Dec-13 13:47 053 3 gusting 6 12.2
2019-Dec-13 13:42 070 2 gusting 5 12.2
2019-Dec-13 13:37 065 2 gusting 5 12.2
2019-Dec-13 13:32 055 2 gusting 6 12.2
2019-Dec-13 13:27 061 2 gusting 6 12.2
2019-Dec-13 13:22 12.2
2019-Dec-13 13:17 342 1 gusting 6 12.2
2019-Dec-13 13:12 001 1 gusting 6 12.2
2019-Dec-13 13:07 034 1 gusting 5 12.2
2019-Dec-13 13:02 072 2 gusting 5 12.8
2019-Dec-13 12:57 057 2 gusting 6 12.8
2019-Dec-13 12:52 029 2 gusting 6 12.8
2019-Dec-13 12:47 067 1 gusting 5 12.8
2019-Dec-13 12:42 067 1 gusting 5 12.8
2019-Dec-13 12:36 024 1 gusting 6 12.8
2019-Dec-13 12:31 066 1 gusting 6 12.8
2019-Dec-13 12:26 333 1 gusting 3 12.8
2019-Dec-13 12:21 173 2 gusting 7 12.8
2019-Dec-13 12:16 075 2 gusting 7 12.8
2019-Dec-13 12:11 040 2 gusting 4 12.8
2019-Dec-13 12:06 024 1 gusting 4 12.8
2019-Dec-13 12:01 051 1 gusting 4 12.8
2019-Dec-13 11:56 096 2 gusting 4 12.8
2019-Dec-13 11:51 053 2 gusting 6 12.8
2019-Dec-13 11:46 020 3 gusting 6 12.8
2019-Dec-13 11:41 065 2 gusting 5 12.8
2019-Dec-13 11:36 057 1 gusting 5 12.8
2019-Dec-13 11:31 320 1 gusting 4 12.8
2019-Dec-13 11:26 029 1 gusting 5 12.8
2019-Dec-13 11:21 071 2 gusting 5 13.3
2019-Dec-13 11:16 029 2 gusting 5 13.3
2019-Dec-13 11:11 061 1 gusting 5 13.3
2019-Dec-13 11:06 067 2 gusting 6 13.3
2019-Dec-13 11:01 038 2 gusting 6 13.3
2019-Dec-13 10:56 014 2 gusting 4 13.3
2019-Dec-13 10:51 051 2 gusting 4 13.3
2019-Dec-13 10:46 083 2 gusting 4 13.3
2019-Dec-13 10:41 303 1 gusting 4 13.3
2019-Dec-13 10:36 323 1 gusting 4 13.3
2019-Dec-13 10:31 344 1 gusting 4 13.3
2019-Dec-13 10:25 069 1 gusting 5 13.3
2019-Dec-13 10:20 065 2 gusting 5 13.3
2019-Dec-13 10:15 069 1 gusting 4 13.3
2019-Dec-13 10:10 034 1 gusting 4 13.3
2019-Dec-13 10:05 034 1 gusting 4 13.3
2019-Dec-13 10:00 048 1 gusting 3 13.3
2019-Dec-13 09:50 057 1 gusting 4 13.3
2019-Dec-13 09:45 325 1 gusting 4 13.3
2019-Dec-13 09:40 052 2 gusting 5 13.3
2019-Dec-13 09:35 068 1 gusting 5 13.3
2019-Dec-13 09:30 059 2 gusting 6 13.3
2019-Dec-13 09:25 081 3 gusting 6 13.3
2019-Dec-13 09:20 053 3 gusting 6 13.3
2019-Dec-13 09:15 059 2 gusting 5 13.3
2019-Dec-13 09:10 050 3 gusting 7 13.3
2019-Dec-13 09:05 038 2 gusting 7 13.3
2019-Dec-13 08:55 060 3 gusting 6 13.3
2019-Dec-13 08:50 055 2 gusting 6 13.3
2019-Dec-13 08:45 058 2 gusting 6 13.3
2019-Dec-13 08:40 13.3
2019-Dec-13 08:35 011 2 gusting 6 13.3
2019-Dec-13 08:30 067 2 gusting 6 13.3
2019-Dec-13 08:25 083 3 gusting 7 13.3
2019-Dec-13 08:20 337 4 gusting 8 13.3
2019-Dec-13 08:15 048 3 gusting 8 13.3
2019-Dec-13 08:10 097 2 gusting 7 13.3
2019-Dec-13 08:05 078 3 gusting 11 13.3
2019-Dec-13 08:00 086 5 gusting 11 13.3
2019-Dec-13 07:55 053 4 gusting 7 13.3
2019-Dec-13 07:50 053 4 gusting 8 13.3
2019-Dec-13 07:45 051 4 gusting 8 13.3
2019-Dec-13 07:40 044 4 gusting 7 13.3
2019-Dec-13 07:35 080 3 gusting 7 13.3
2019-Dec-13 07:30 070 4 gusting 8 13.3
2019-Dec-13 07:25 054 5 gusting 10 13.3
2019-Dec-13 07:20 034 5 gusting 10 13.3
2019-Dec-13 07:05 042 3 gusting 7 13.3
2019-Dec-13 07:00 034 3 gusting 9 13.3
2019-Dec-13 06:55 049 5 gusting 9 13.9
2019-Dec-13 06:45 047 5 gusting 10 13.9
2019-Dec-13 06:40 024 4 gusting 9 13.9
2019-Dec-13 06:35 040 4 gusting 9 13.9
2019-Dec-13 06:30 048 5 gusting 10 13.9
2019-Dec-13 06:25 067 5 gusting 10 13.9
2019-Dec-13 06:20 059 5 gusting 9 13.9
2019-Dec-13 06:15 049 4 gusting 8 13.9
2019-Dec-13 06:10 053 4 gusting 9 13.9
2019-Dec-13 06:04 024 4 gusting 9 13.9
2019-Dec-13 05:59 067 3 gusting 8 13.9
2019-Dec-13 05:55 089 1 gusting 7 13.9
2019-Dec-13 05:49 090 2 gusting 7 13.9
2019-Dec-13 05:44 327 1 gusting 7 13.9
2019-Dec-13 05:39 075 1 gusting 7 13.9
2019-Dec-13 05:34 034 2 gusting 6 13.9
2019-Dec-13 05:29 071 2 gusting 6 13.9
2019-Dec-13 05:24 063 3 gusting 8 13.9
2019-Dec-13 05:19 075 4 gusting 8 13.9
2019-Dec-13 05:09 049 4 gusting 8 13.9
2019-Dec-13 05:04 046 4 gusting 8 13.9
2019-Dec-13 04:59 058 3 gusting 8 13.9
2019-Dec-13 04:54 071 3 gusting 8 13.9
2019-Dec-13 04:49 051 4 gusting 8 13.9
2019-Dec-13 04:44 063 3 gusting 7 13.9
2019-Dec-13 04:39 024 2 gusting 6 13.9
2019-Dec-13 04:34 034 2 gusting 8 13.9
2019-Dec-13 04:29 073 3 gusting 8 13.9
2019-Dec-13 04:24 158 2 gusting 7 13.9
2019-Dec-13 04:19 098 2 gusting 5 13.9
2019-Dec-13 04:14 083 4 gusting 10 13.9
2019-Dec-13 04:09 013 4 gusting 10 13.9
2019-Dec-13 04:04 082 4 gusting 9 13.9
2019-Dec-13 03:59 015 5 gusting 10 13.9
2019-Dec-13 03:54 065 4 gusting 10 13.9
2019-Dec-13 03:49 016 4 gusting 8 13.9
2019-Dec-13 03:44 061 4 gusting 8 13.9
2019-Dec-13 03:39 073 5 gusting 8 13.9
2019-Dec-13 03:34 029 5 gusting 9 13.9
2019-Dec-13 03:29 038 5 gusting 9 13.9
2019-Dec-13 03:24 047 5 gusting 10 13.9
2019-Dec-13 03:19 034 5 gusting 10 13.9
2019-Dec-13 03:14 063 5 gusting 12 13.9
2019-Dec-13 03:09 034 5 gusting 12 13.9
2019-Dec-13 03:04 065 5 gusting 15 13.9
2019-Dec-13 02:58 069 6 gusting 15 13.9
2019-Dec-13 02:53 045 5 gusting 11 13.9
2019-Dec-13 02:48 034 5 gusting 11 13.3
2019-Dec-13 02:43 063 6 gusting 12 13.3
2019-Dec-13 02:38 053 6 gusting 12 13.3
2019-Dec-13 02:33 059 6 gusting 12 13.3
2019-Dec-13 02:28 335 6 gusting 12 13.3
2019-Dec-13 02:23 053 6 gusting 12 13.3
2019-Dec-13 02:18 068 5 gusting 11 13.3
2019-Dec-13 02:13 040 5 gusting 12 13.3
2019-Dec-13 02:08 064 5 gusting 12 13.3
2019-Dec-13 02:04 053 5 gusting 8 13.3
2019-Dec-13 01:58 057 5 gusting 9 13.3
2019-Dec-13 01:53 063 6 gusting 10 13.3
2019-Dec-13 01:48 055 6 gusting 10 13.3
2019-Dec-13 01:43 045 6 gusting 12 13.3
2019-Dec-13 01:38 046 6 gusting 12 13.3
2019-Dec-13 01:33 060 6 gusting 12 13.3
2019-Dec-13 01:28 041 6 gusting 12 13.3
2019-Dec-13 01:23 067 6 gusting 12 12.8
2019-Dec-13 01:18 088 6 gusting 12 12.8
2019-Dec-13 01:13 017 6 gusting 13 12.8
2019-Dec-13 01:08 055 6 gusting 13 12.8
2019-Dec-13 01:03 062 6 gusting 13 12.8
2019-Dec-13 00:58 050 8 gusting 16 12.8
2019-Dec-13 00:53 053 8 gusting 16 12.8
2019-Dec-13 00:48 359 7 gusting 13 12.8
2019-Dec-13 00:43 056 6 gusting 16 12.8
2019-Dec-13 00:38 029 6 gusting 16 12.8
2019-Dec-13 00:33 072 6 gusting 13 12.8
2019-Dec-13 00:28 017 6 gusting 12 12.8
2019-Dec-13 00:23 024 6 gusting 12 12.2
2019-Dec-13 00:18 075 7 gusting 17 12.2
2019-Dec-13 00:13 061 7 gusting 17 12.2
2019-Dec-13 00:08 034 6 gusting 15 12.2
2019-Dec-13 00:03 044 6 gusting 15 12.2
2019-Dec-12 23:58 070 7 gusting 13 12.2
2019-Dec-12 23:53 048 6 gusting 13 12.8
2019-Dec-12 23:48 075 6 gusting 13 12.8
2019-Dec-12 23:43 047 6 gusting 14 12.8
2019-Dec-12 23:38 145 6 gusting 16 12.8
2019-Dec-12 23:33 065 6 gusting 16 12.8
2019-Dec-12 23:28 002 8 gusting 17 12.8
2019-Dec-12 23:23 048 8 gusting 17 12.8
2019-Dec-12 23:18 070 8 gusting 15 12.8
2019-Dec-12 23:13 048 9 gusting 19 12.8
2019-Dec-12 23:08 042 7 gusting 19 12.8
2019-Dec-12 23:03 034 6 gusting 14 12.8
2019-Dec-12 22:58 065 6 gusting 13 12.8
2019-Dec-12 22:53 029 6 gusting 13 12.8
2019-Dec-12 22:48 335 6 gusting 13 12.8
2019-Dec-12 22:43 114 7 gusting 13 12.8
2019-Dec-12 22:38 063 7 gusting 13 12.8
2019-Dec-12 22:33 098 7 gusting 18 12.2
2019-Dec-12 22:28 059 6 gusting 18 12.2
2019-Dec-12 22:23 051 6 gusting 13 12.2
2019-Dec-12 22:18 068 6 gusting 15 12.2
2019-Dec-12 22:13 070 7 gusting 15 12.2
2019-Dec-12 22:08 070 7 gusting 13 12.2
2019-Dec-12 22:03 006 6 gusting 13 12.2
2019-Dec-12 21:57 041 7 gusting 18 12.8
2019-Dec-12 21:52 079 8 gusting 18 12.8
2019-Dec-12 21:47 046 6 gusting 18 12.8
2019-Dec-12 21:42 048 6 gusting 15 12.8
2019-Dec-12 21:37 070 8 gusting 15 12.2
2019-Dec-12 21:32 064 8 gusting 15 12.2
2019-Dec-12 21:27 040 7 gusting 17 12.2
2019-Dec-12 21:22 061 6 gusting 17 12.8
2019-Dec-12 21:17 029 6 gusting 15 12.8
2019-Dec-12 21:12 068 7 gusting 16 12.2
2019-Dec-12 21:07 034 8 gusting 16 12.2
2019-Dec-12 21:02 024 7 gusting 14 12.2
2019-Dec-12 20:57 098 6 gusting 13 12.2
2019-Dec-12 20:52 060 6 gusting 13 12.2
2019-Dec-12 20:47 057 6 gusting 12 12.2
2019-Dec-12 20:42 056 6 gusting 13 12.2
2019-Dec-12 20:37 057 6 gusting 14 12.2
2019-Dec-12 20:32 067 7 gusting 14 12.2
2019-Dec-12 20:27 029 6 gusting 14 12.8
2019-Dec-12 20:22 047 6 gusting 14 12.8
2019-Dec-12 20:17 053 6 gusting 14 12.8
2019-Dec-12 20:12 072 6 gusting 14 12.8
2019-Dec-12 20:07 342 6 gusting 14 12.8
2019-Dec-12 20:02 016 7 gusting 16 12.8
2019-Dec-12 19:57 063 6 gusting 16 12.8
2019-Dec-12 19:52 070 6 gusting 15 12.8
2019-Dec-12 19:47 085 7 gusting 17 12.8
2019-Dec-12 19:42 057 9 gusting 19 12.8
2019-Dec-12 19:37 048 9 gusting 19 12.8
2019-Dec-12 19:32 057 6 gusting 18 12.8
2019-Dec-12 19:27 057 6 gusting 13 12.8
2019-Dec-12 19:22 307 6 gusting 14 12.8
2019-Dec-12 19:17 069 6 gusting 14 13.3
2019-Dec-12 19:12 055 6 gusting 18 13.3
2019-Dec-12 19:07 078 6 gusting 18 12.8
2019-Dec-12 19:02 056 6 gusting 12 12.8
2019-Dec-12 18:57 065 6 gusting 12 12.8
2019-Dec-12 18:52 034 6 gusting 14 12.8
2019-Dec-12 18:47 076 6 gusting 14 12.8
2019-Dec-12 18:42 019 6 gusting 13 12.8
2019-Dec-12 18:37 12.8
2019-Dec-12 18:32 024 6 gusting 13 12.8
2019-Dec-12 18:26 055 6 gusting 15 12.8
2019-Dec-12 18:21 107 6 gusting 15 13.3
2019-Dec-12 18:16 063 6 gusting 13 13.3
2019-Dec-12 18:11 064 6 gusting 14 13.3
2019-Dec-12 18:06 096 7 gusting 14 13.3
2019-Dec-12 18:01 350 7 gusting 14 13.3
2019-Dec-12 17:56 082 7 gusting 14 13.3
2019-Dec-12 17:51 019 8 gusting 14 12.8
2019-Dec-12 17:46 080 7 gusting 15 12.8
2019-Dec-12 17:41 040 6 gusting 15 13.3
2019-Dec-12 17:36 024 6 gusting 15 13.3
2019-Dec-12 17:31 099 8 gusting 20 13.3
2019-Dec-12 17:26 051 10 gusting 20 12.8
2019-Dec-12 17:21 060 9 gusting 17 12.8
2019-Dec-12 17:16 043 8 gusting 19 13.3
2019-Dec-12 17:11 086 8 gusting 19 13.3
2019-Dec-12 17:06 048 7 gusting 19 13.3
2019-Dec-12 17:01 070 7 gusting 19 13.3
2019-Dec-12 16:56 070 7 gusting 16 13.3
2019-Dec-12 16:51 048 8 gusting 19 13.3
2019-Dec-12 16:46 017 7 gusting 19 13.3
2019-Dec-12 16:41 059 7 gusting 18 13.3
2019-Dec-12 16:36 049 9 gusting 18 13.3
2019-Dec-12 16:31 034 9 gusting 18 13.3
2019-Dec-12 16:26 053 7 gusting 15 13.3
2019-Dec-12 16:21 048 6 gusting 13 13.3
2019-Dec-12 16:16 040 6 gusting 13 12.8
2019-Dec-12 16:11 029 6 gusting 14 12.8
2019-Dec-12 16:06 010 6 gusting 14 12.8
2019-Dec-12 16:01 047 6 gusting 12 12.2
2019-Dec-12 15:56 061 6 gusting 14 12.2
2019-Dec-12 15:51 029 7 gusting 14 12.2
2019-Dec-12 15:46 003 7 gusting 14 12.2
2019-Dec-12 15:41 100 7 gusting 15 12.2
2019-Dec-12 15:36 071 8 gusting 15 12.2
2019-Dec-12 15:31 098 7 gusting 14 12.2
2019-Dec-12 15:26 082 6 gusting 13 12.2
2019-Dec-12 15:21 050 6 gusting 13 12.2
2019-Dec-12 15:16 082 6 gusting 15 12.2
2019-Dec-12 15:11 094 6 gusting 15 12.8
2019-Dec-12 15:05 013 6 gusting 13 12.8
2019-Dec-12 15:00 045 6 gusting 13 12.8